This demonstration page uses our WeatherBlox Daily Observations layout. Learn more.

Left ArrowRight Arrow

34.74481, -87.66753

Hourly Observations for June 5, 2018

Temp ( °F °C ) Dew Point ( °F °C ) Humidity (%) Winds ( mph kmh ) Pressure ( in mb ) Visibility ( mi km ) Precip ( " mm )
12:53 am 00:53 Clear 65 18.3 62 16.7 90 90 Calm 29.95 1014 10 16 0.00 0.00
1:53 am 01:53 Clear 64 17.8 61 16.1 90 90 Calm 29.94 1014 10 16 0.00 0.00
2:53 am 02:53 Clear 64 17.8 61 16.1 90 90 Calm 29.95 1014 10 16 0.00 0.00
3:53 am 03:53 Clear 63 17.2 61 16.1 93 93 Calm 29.93 1014 10 16 0.00 0.00
4:53 am 04:53 Clear 62 16.7 60 15.6 93 93 Calm 29.95 1014 10 16 0.00 0.00
5:53 am 05:53 Sunny 62 16.7 60 15.6 93 93 Calm 29.95 1014 10 16 0.00 0.00
6:53 am 06:53 Sunny 66 18.9 62 16.7 87 87 Calm 29.95 1014 10 16 0.00 0.00
7:53 am 07:53 Sunny 68 20 61 16.1 78 78 Calm 29.95 1014 10 16 0.00 0.00
8:53 am 08:53 Sunny 70 21.1 60 15.6 71 71 Calm 29.95 1014 10 16 0.00 0.00
9:53 am 09:53 Sunny 75 23.9 61 16.1 62 62 Calm 29.94 1014 10 16 0.00 0.00
10:53 am 10:53 Sunny 78 25.6 57 13.9 48 48 VRB 3 6 29.94 1014 10 16 0.00 0.00
11:53 am 11:53 Sunny 80 26.7 57 13.9 45 45 W 7 11 29.93 1014 10 16 0.00 0.00
12:53 pm 12:53 Sunny 83 28.3 54 12.2 37 37 NW 6 9 29.92 1013 10 16 0.00 0.00
1:53 pm 13:53 Sunny 84 28.9 55 12.8 37 37 W 6 9 29.91 1013 10 16 0.00 0.00
2:53 pm 14:53 Sunny 84 28.9 54 12.2 36 36 undefined N/A 29.89 1012 10 16 0.00 0.00
3:53 pm 15:53 Sunny 85 29.4 55 12.8 36 36 WNW 9 15 29.87 1011 10 16 0.00 0.00
4:53 pm 16:53 Sunny 85 29.4 56 13.3 37 37 NW 7 11 29.87 1012 10 16 0.00 0.00
5:53 pm 17:53 Sunny 84 28.9 58 14.4 41 41 N 8 13 29.86 1011 10 16 0.00 0.00
6:53 pm 18:53 Sunny 82 27.8 57 13.9 42 42 N 5 7 29.87 1011 10 16 0.00 0.00
7:53 pm 19:53 Sunny 78 25.6 59 15 52 52 N 3 6 29.88 1012 10 16 0.00 0.00
8:53 pm 20:53 Clear 73 22.8 60 15.6 64 64 Calm 29.87 1012 10 16 0.00 0.00
9:53 pm 21:53 Clear 72 22.2 61 16.1 68 68 Calm 29.89 1012 10 16 0.00 0.00
10:53 pm 22:53 Clear 69 20.6 62 16.7 78 78 Calm 29.89 1012 10 16 0.00 0.00
11:53 pm 23:53 Clear 67 19.4 62 16.7 84 84 Calm 29.89 1012 10 16 0.00 0.00

Powered by AerisWeather